Simultaneous Nadir Overpasses (SNOs) Predictions

Prediction of SNOs between NPP and TERRA Satellite Orbit:

Table of predicted SNOs for the next 14.0 days since TLE Epoch: 8/4/2018
Index Date (NPP) Time (NPP) Lat,Lon (NPP) SZA (NPP ) Date (TERRA) Time (TERRA) Lat,Lon (TERRA) SZA (TERRA ) Distance(km) Time Diff (sec)
1 08/04/2018 11:30:02 68.50, 5.98 51.25 08/04/2018 11:31:13 68.47, 6.15 51.20 8.27 71
2 08/04/2018 12:20:42 -68.31, 173.55 128.94 08/04/2018 12:20:44 -68.30, 173.59 128.96 2.05 2
3 08/04/2018 13:11:25 68.13, -18.91 50.88 08/04/2018 13:10:12 68.13, -18.97 50.90 2.21 73
4 08/07/2018 03:46:57 68.39, 121.89 51.87 08/07/2018 03:47:43 68.39, 121.93 51.85 2.06 46
5 08/07/2018 04:37:38 -68.25, -70.61 128.27 08/07/2018 04:37:14 -68.22, -70.63 128.30 3.26 24
6 08/07/2018 05:28:04 67.15, 98.04 50.62 08/07/2018 05:26:57 67.21, 95.87 50.73 94.02 67
7 08/09/2018 19:13:25 -69.31, 69.10 126.44 08/09/2018 19:14:32 -69.20, 71.18 126.60 82.89 67
8 08/09/2018 20:03:53 68.34,-122.27 52.57 08/09/2018 20:04:13 68.31,-122.28 52.54 3.46 20
9 08/09/2018 20:54:34 -68.19, 45.23 127.57 08/09/2018 20:53:43 -68.20, 45.23 127.56 1.20 51
10 08/12/2018 11:30:05 -68.40,-173.89 126.59 08/12/2018 11:31:15 -68.40,-173.93 126.60 1.72 70
11 08/12/2018 12:20:49 68.28, -6.44 53.31 08/12/2018 12:20:42 68.29, -6.43 53.31 0.53 7
12 08/12/2018 13:11:27 -67.97, 161.28 127.01 08/12/2018 13:10:15 -68.01, 160.88 126.95 16.98 72
13 08/15/2018 03:47:01 -68.40, -58.12 125.78 08/15/2018 03:47:43 -68.38, -58.08 125.79 2.39 42
14 08/15/2018 04:37:44 68.23, 109.39 54.07 08/15/2018 04:37:11 68.21, 109.36 54.05 2.65 33
15 08/17/2018 19:13:25 68.98,-110.46 55.67 08/17/2018 19:14:35 68.86,-109.24 55.52 50.75 70
16 08/17/2018 20:03:57 -68.34, 57.71 124.99 08/17/2018 20:04:13 -68.31, 57.72 125.02 3.28 16
17 08/17/2018 20:54:40 68.18,-134.78 54.87 08/17/2018 20:53:40 68.19,-134.78 54.88 1.42 60




NCC Satellite Simultaneous Nadir Overpasses (SNOs) Prediction Service
